Вернуться в каталог

STARLINK-30818

АктивенСвязьVLEO
NORAD 58217·PAYLOAD·🇺🇸 United States

Запущен Nov 3, 2023 с Cape Canaveral Space Force Station

Loading…

Ближайшие Пролёты (ближайшие 24 часа)

TLE

СвежийSource: CelesTrak SupGP

Эпоха: Sep 15, 2026, 02:02 UTC

1 58217C 23170M   26258.08520833 -.00004507  00000+0 -16319-3 0  2586
2 58217  42.9996 204.4787 0001741 267.8535 203.6266 15.27588686    17

Отслеживайте STARLINK-30818 в реальном времени с AllMySat

Download on the App Store